Regional Weather Roundup
Issued by NWS

Home | Current Version | Previous Version | Graphics & Text | Print | Product List | Glossary On
Versions: 1 2 3 4 5 6 7 8 9 10 11 12 13 14 15 16 17 18 19 20 21 22 23 24 25 26 27 28 29 30 31 32 33 34 35 36 37 38 39 40 41 42 43 44 45 46 47 48 49
000
ASUS45 KBOU 281607
RWRCO

WEATHER ROUNDUP FOR COLORADO
NATIONAL WEATHER SERVICE DENVER/BOULDER CO
900 AM MST SUN DEC 28 2014

NOTE: "FAIR" INDICATES FEW OR NO CLOUDS BELOW 12000 FEET WITH NO
SIGNIFICANT WEATHER AND/OR OBSTRUCTIONS TO VISIBILITY.

COZ001>005-013-030-031-281700-
...NORTHWEST COLORADO...

CITY           SKY/WX    TMP DP  RH WIND       PRES   REMARKS
CRAIG          CLOUDY    16   9  74 NE7       30.05S WCI   6
HAYDEN         CLOUDY    10   5  79 SE8       30.03F WCI  -1
MEEKER         CLOUDY    21   9  59 VRB3      30.05S
MOUNT WERNER   NOT AVBL
STEAMBOAT SPGS CLOUDY     6   2  85 CALM      30.02F
WALDEN         CLOUDY    14   5  67 SE20G25   29.91S WCI  -3
$$

COZ006>008-011-281700-
...WEST CENTRAL VALLEYS...

CITY           SKY/WX    TMP DP  RH WIND       PRES   REMARKS
GRAND JUNCTION CLOUDY    20  11  68 SE5       30.17S WCI  13
MONTROSE       CLOUDY    18  10  71 CALM      30.19R
EAGLE          LGT SNOW  10   9  92 CALM      30.12F FOG
RIFLE          CLOUDY    15  11  83 N3        30.17R
DELTA          CLOUDY    20  11  67 CALM      30.19S
NUCLA          NOT AVBL
$$

COZ017>023-064>068-281700-
...SOUTHWEST COLORADO...

CITY           SKY/WX    TMP DP  RH WIND       PRES   REMARKS
DURANGO        FOG        9   8  96 CALM      30.16S VSB 3/4
CORTEZ         SUNNY     17  10  74 NE3       30.19S
PAGOSA SPRINGS MOSUNNY  N/A N/A N/A CALM      30.11S
TELLURIDE      CLOUDY    17   1  49 CALM      30.04S
WOLF CREEK PAS MOSUNNY   10   1  67 MISG      29.96S
$$

COZ009-010-012-014-032>034-037-058>063-281700-
...CENTRAL COLORADO...

CITY           SKY/WX    TMP DP  RH WIND       PRES   REMARKS
ASPEN          LGT SNOW  10   7  87 CALM      30.04R VSB 1
BUENA VISTA    PTSUNNY   22   9  57 NW13      29.97R WCI  10
COPPER MTN     LGT SNOW   9   0  66 W16       29.88S WCI  -9
BERTHOUD PASS  NOT AVBL
COTTONWOOD PAS LGT SNOW  19   9  63 NW18G29   29.90R VSB 1   WCI   4
GUNNISON       CLOUDY    -9 -27  41 CALM      30.18R
KREMMLING      LGT SNOW   5   0  78 CALM      30.05R
LEADVILLE      LGT SNOW  12   4  70 N9G18     29.93R WCI   0
MONARCH PASS   CLOUDY     5  -4  66 MISG      30.00S
SALIDA         MOSUNNY   27   4  38 W6        30.03R WCI  20
SUNLIGHT       LGT SNOW N/A N/A N/A CALM      29.94F
WILKERSON PASS SUNNY     10   3  72 W14G26    29.87R WCI  -5
$$

COZ069>075-281700-
...SAN LUIS VALLEY/SANGRE DE CRISTO MOUNTAINS...

CITY           SKY/WX    TMP DP  RH WIND       PRES   REMARKS
ALAMOSA        MOSUNNY    2  -4  76 CALM      30.10S
LA VETA PASS   NOT AVBL
SAGUACHE       MOSUNNY    0  -8  71 NW7       30.09S WCI -13
$$

COZ035-036-038>040-281700-
...NORTHERN COLORADO FRONT RANGE...

CITY           SKY/WX    TMP DP  RH WIND       PRES   REMARKS
DENVER INTL AP MOSUNNY   16   7  67 SW6       29.90F WCI   7
DMNS CITY PARK   N/A     20   9  64 SW5       29.91S WCI  13
AURORA         MOSUNNY   18   7  61 S6        29.91S WCI  10
FRONT RANGE AP MOSUNNY   21   9  58 SW7       29.91S WCI  13
ERIE MUNI ARPT   N/A    N/A N/A N/A MISG      29.90F
BOULDER MUN AP MOSUNNY   18  12  79 CALM      29.89F
CENTENNIAL     MOSUNNY   17   5  59 VRB3      29.89F
BROOMFIELD     MOSUNNY   21  10  63 SW7       29.89F WCI  13
FORT COLLINS   MOSUNNY    9   5  85 CALM      29.93S
LONGMONT       MOSUNNY   10   6  84 CALM      29.95R
$$

COZ041-046-047-076>085-087-088-281700-
...PIKES PEAK/PALMER DIVIDE AND SOUTHERN FOOTHILLS...

CITY           SKY/WX    TMP DP  RH WIND       PRES   REMARKS
COLO. SPRINGS  MOSUNNY   23  11  60 SW5       29.88S WCI  17
A. F. ACADEMY  SUNNY     32   1  27 N2        29.88R
ELLICOTT       NOT AVBL
FALCON         SUNNY     32   4  31 NW10      29.87S WCI  24
FORT CARSON    SUNNY     22  10  60 N1        29.88S
LIMON          PTSUNNY   12   8  84 CALM      29.91F
MONUMENT HILL  SUNNY     25   0  33 N5        29.87S WCI  19
TRINIDAD       MOSUNNY   20   7  57 W10       29.93S WCI   9
$$

COZ042>045-048>051-090-091-281700-
...NORTHEAST COLORADO...

CITY           SKY/WX    TMP DP  RH WIND       PRES   REMARKS
GREELEY ARPT   PTSUNNY    5  -2  72 NE5       29.93S WCI  -4
AKRON          CLOUDY    21  10  62 SW10      29.93F WCI  10
BURLINGTON     SUNNY     15  10  80 SW6       29.97F WCI   6
WRAY           PTSUNNY   16   9  75 SW5       30.00F WCI   9
STERLING       CLOUDY    10   7  85 CALM      29.98S
HOLYOKE        PTSUNNY   18  10  73 CALM      30.00S
FORT MORGAN    CLOUDY     8   4  84 W7        29.95F WCI  -3
$$

COZ086-089-092>099-281700-
...SOUTHEAST COLORADO...

CITY           SKY/WX    TMP DP  RH WIND       PRES   REMARKS
PUEBLO         SUNNY     17  11  77 CALM      29.94F
LA JUNTA       MOSUNNY   18  13  80 W5        29.98S WCI  11
LAMAR          MOSUNNY   16  12  84 NW6       30.00S WCI   7
SPRINGFIELD      N/A     33  14  45 W6        29.97S WCI  28
$$


USA.gov is the U.S. government's official web portal to all federal, state and local government web resources and services.